Flock 4h-16

operational
NORAD ID: 66719 Int'l Des: 2025-276 Owner: PLAN Country: US Constellation: planet
NOTLE

About Flock 4h-16

Description loading...

Live Position

Loading 3D Globe...

Upcoming Passes

Altitude History

Altitude vs Time

uPlot chart will show altitude changes over time

Two-Line Element Set

1 66719U 25276BF 26047.21455783 .00008518 00000-0 42007-3 0 9993
2 66719 97.4354 122.8426 0005721 75.4118 284.7750 15.18152339 12058
Epoch: Feb 16, 2026 • Age: 12 hours

Current Status

Altitude 516.6 km
Velocity 7.60 km/s
Sub-Earth Point -4.51°S, 99.43°W
Launch Date Nov 28, 2025
Age 0.2 years
Type earth observation

Technical Details

Classification Payload
Mass 5.70 kg
Dry Mass 5.70 kg
Total Mass 5.70 kg
Length 0.30 m
Diameter 0.10 m
Span 0.30 m
Shape Box+2 pan
Manufacturer PLAN
Bus Type Cubesat 3U
Phase Status In Orbit
Owner/State PLAN/US

Large Constellations

Loading constellations...